Regional Weather Roundup
Issued by NWS

Home | Current Version | Previous Version | Text Only | Print | Product List | Glossary On
Versions: 1 2 3 4 5 6 7 8 9 10 11 12 13 14 15 16 17 18 19 20 21 22 23 24 25 26 27 28 29 30 31 32 33 34 35 36 37 38 39 40 41 42 43 44 45 46 47 48 49 50
503
ASUS44 KLIX 010705
RWRLA
LOUISIANA WEATHER ROUNDUP
NATIONAL WEATHER SERVICE NEW ORLEANS LA
200 AM CDT MON SEP 01 2014

NOTE: "FAIR" INDICATES FEW OR NO CLOUDS BELOW 12,000 FEET WITH NO
      SIGNIFICANT WEATHER AND/OR OBSTRUCTIONS TO VISIBILITY.
      SKY/WX - SKY CONDITION AND SIGNIFICANT WEATHER.
      TMP - AIR TEMPERATURE.    DP   - DEWPOINT TEMPERATURE.
      RH  - RELATIVE HUMIDITY.  PRES - PRESSURE.
      HX  - HEAT INDEX.         WCI  - WIND CHILL INDEX.

*  THESE STATIONS ARE NOT NWS OR FAA STATIONS AND ARE NOT UNDER
   NWS QUALITY CONTROL.

LAZ040-048-061>063-065-066-069-010800-
SOUTHEAST LOUISIANA

CITY           SKY/WX    TMP DP  RH WIND       PRES   REMARKS
N.O. AUDUBON     N/A     82  79  90 MISG        N/A
N.O. INTL ARPT MOCLDY    82  76  81 SE9       30.01F
N.O. LAKEFRONT CLEAR     81  77  88 SE8       30.02F
N.O. DOWNTOWN* FAIR      82  73  74 SE3       30.02F
SLIDELL        CLEAR     80  76  87 SE5       30.02F
BATON ROUGE    CLEAR     76  74  93 E6        30.02S
BOOTHVILLE     PTCLDY    83  78  85 SE7       30.03F
BELLE CHASSE   PTCLDY    82  75  79 SE6       30.01F
BOGALUSA*        N/A     74  71  88 N3        30.04F
GALLIANO*      NOT AVBL
NEW ROADS*     FAIR      77  75  94 CALM      30.01F
GONZALES*      FAIR      78  78 100 CALM      30.00F
HAMMOND*       CLEAR     75  72  88 CALM      30.04S
HOUMA*         CLEAR     80  75  84 SE6       30.01S
PORT FOURCHON* NOT AVBL

$$

LAZ041-044-053-054-010800-
SOUTHWEST LOUISIANA

CITY           SKY/WX    TMP DP  RH WIND       PRES   REMARKS
LAKE CHARLES   CLEAR     78  75  90 S5        29.98S
LAFAYETTE      CLEAR     78  76  93 CALM      30.00F
PATTERSON        N/A     79  77  94 SE5       30.03S
SALT POINT       N/A     86  79  79 SE8       29.98F HX  99
NEW IBERIA     PTCLDY    79  76  90 E5        30.00F
CHENAULT AIRPK PTCLDY    79  76  91 SE6       29.99S

$$

LAZ027-028-010800-
CENTRAL LOUISIANA

CITY           SKY/WX    TMP DP  RH WIND       PRES   REMARKS
FORT POLK      CLOUDY    75  75 100 SE5       29.99S
ALEXANDRIA INT CLEAR     76  74  93 S6        29.98S
ALEXANDRIA     CLEAR     76  72  87 CALM      30.00S

$$

LAZ001-002-010800-
NORTHWEST LOUISIANA

CITY           SKY/WX    TMP DP  RH WIND       PRES   REMARKS
SHREVEPORT     CLEAR     74  72  93 SE5       29.97R
BARKSDALE AFB  CLEAR     73  71  95 SE6       29.98R
DTN SHREVEPORT CLEAR     75  72  90 SE7       29.97S

$$

LAZ014-016-010800-
NORTHEAST LOUISIANA

CITY           SKY/WX    TMP DP  RH WIND       PRES   REMARKS
MONROE         PTCLDY    74  71  91 S5        30.00R
TALLULAH       CLEAR     77  73  87 S8        30.01S

$$




USA.gov is the U.S. government's official web portal to all federal, state and local government web resources and services.